Weather History for KABY - August, 2014

Change the Weather History Date:

Monday, August 11, 2014

  Actual Average Record
Temperature  
Mean Temperature 83 °F 82 °F  
Max Temperature 94 °F 92 °F 101 °F (1956)
Min Temperature 72 °F 72 °F 62 °F (1989)
Degree Days  
Heating Degree Days 0 0  
Month to date heating degree days 0 0  
Since 1 June heating degree days 0 0  
Since 1 July heating degree days 0 0  
Cooling Degree Days 18 17  
Month to date cooling degree days 197 187  
Year to date cooling degree days 1582 1633  
Since 1 June cooling degree days 1188 1193  
Growing Degree Days 32 (Base 50)    
Moisture  
Dew Point 73 °F    
Average Humidity 73    
Maximum Humidity 100    
Minimum Humidity 46    
Precipitation  
Precipitation 0.00 in - 1.01 in (2012)
Sea Level Pressure  
Sea Level Pressure 29.99 in    
Wind  
Wind Speed 3 mph (North)    
Max Wind Speed 17 mph    
Max Gust Speed 22 mph    
Visibility 9 miles    
Events Thunderstorm    
T = Trace of Precipitation, MM = Missing Value Source: NWS Daily Summary

Daily Weather History Graph

Daily Weather History Graph

Search for Another Location

Airport or City:

Trip Planner

Search our weather history database for the weather conditions in past years. The results will help you decide how hot, cold, wet, or windy it might be!

Date:

Astronomy

Aug. 11, 2014 Rise Set
Actual Time 6:59 AM EDT 8:24 PM EDT
Civil Twilight 6:33 AM EDT 8:49 PM EDT
Nautical Twilight 6:02 AM EDT 9:20 PM EDT
Astronomical Twilight 5:30 AM EDT 9:52 PM EDT
Moon 9:01 PM EDT (8/11) 7:56 AM EDT (8/11)
Length of Visible Light 14h 16m
Length of Day
13h 24m
Full, 99% of the Moon is Illuminated
Aug 11
Full
Aug 17
Last Quarter
Aug 25
New
Sep 2
First Quarter
Sep 8
Full

Hourly Weather History & Observations

Time (EDT) Temp. Heat Index Dew Point Humidity Pressure Visibility Wind Dir Wind Speed Gust Speed Precip Events Conditions
12:53 AM 73.9 °F - 73.0 °F 97% 30.04 in 10.0 mi WNW 3.5 mph - N/A   Clear
1:53 AM 73.0 °F - 73.0 °F 100% 30.02 in 10.0 mi Calm Calm - N/A   Clear
2:53 AM 73.0 °F - 73.0 °F 100% 30.00 in 9.0 mi NNW 3.5 mph - N/A   Clear
3:53 AM 73.0 °F - 73.0 °F 100% 29.98 in 9.0 mi Calm Calm - N/A   Clear
4:53 AM 73.0 °F - 73.0 °F 100% 29.97 in 8.0 mi Calm Calm - N/A   Clear
5:53 AM 72.0 °F - 72.0 °F 100% 29.98 in 8.0 mi Calm Calm - N/A   Clear
6:05 AM 71.6 °F - 71.6 °F 100% 29.99 in 8.0 mi Calm Calm - N/A   Partly Cloudy
6:50 AM 71.6 °F - 71.6 °F 100% 30.01 in 1.5 mi Calm Calm - N/A   Mist
6:53 AM 72.0 °F - 72.0 °F 100% 30.00 in 1.8 mi Calm Calm - N/A   Mist
6:56 AM 71.6 °F - 71.6 °F 100% 30.01 in 3.0 mi Calm Calm - N/A   Mist
7:27 AM 71.6 °F - 71.6 °F 100% 30.02 in 7.0 mi Calm Calm - N/A   Overcast
7:53 AM 73.9 °F - 73.0 °F 97% 30.03 in 5.0 mi Calm Calm - N/A   Mostly Cloudy
8:53 AM 75.0 °F - 73.9 °F 96% 30.04 in 7.0 mi East 3.5 mph - N/A   Overcast
9:53 AM 78.1 °F - 75.0 °F 90% 30.04 in 8.0 mi ENE 4.6 mph - N/A   Overcast
10:53 AM 80.1 °F 85.1 °F 75.0 °F 85% 30.05 in 10.0 mi ENE 4.6 mph - N/A   Overcast
11:06 AM 82.4 °F 89.5 °F 75.2 °F 79% 30.05 in 10.0 mi ENE 4.6 mph - N/A   Overcast
11:53 AM 84.0 °F 91.2 °F 73.9 °F 72% 30.04 in 10.0 mi Calm Calm - N/A   Mostly Cloudy
12:53 PM 86.0 °F 93.0 °F 73.0 °F 65% 30.01 in 10.0 mi Calm Calm - N/A   Mostly Cloudy
1:37 PM 89.6 °F 98.2 °F 73.4 °F 59% 30.00 in 10.0 mi WNW 6.9 mph - N/A   Mostly Cloudy
1:53 PM 91.0 °F 99.3 °F 73.0 °F 55% 29.98 in 10.0 mi NNE 4.6 mph - N/A   Mostly Cloudy
2:53 PM 91.9 °F 98.4 °F 71.1 °F 50% 29.96 in 10.0 mi Calm Calm - N/A   Mostly Cloudy
3:53 PM 91.9 °F 98.4 °F 71.1 °F 50% 29.94 in 10.0 mi North 3.5 mph - N/A   Partly Cloudy
4:53 PM 93.9 °F 100.3 °F 70.0 °F 46% 29.92 in 10.0 mi Variable 4.6 mph - N/A   Partly Cloudy
5:53 PM 87.1 °F 93.6 °F 72.0 °F 61% 29.93 in 10.0 mi NNW 10.4 mph - N/A   Mostly Cloudy
6:23 PM 87.8 °F 93.8 °F 71.6 °F 58% 29.94 in 10.0 mi NNW 5.8 mph - N/A Thunderstorm Thunderstorm
6:53 PM 87.1 °F 93.6 °F 72.0 °F 61% 29.94 in 10.0 mi NNW 4.6 mph - N/A   Scattered Clouds
7:53 PM 80.1 °F 83.8 °F 72.0 °F 76% 29.93 in 10.0 mi SSE 8.1 mph - N/A   Clear
8:53 PM 80.1 °F 83.8 °F 72.0 °F 76% 29.95 in 10.0 mi SW 5.8 mph - N/A   Mostly Cloudy
9:53 PM 78.1 °F - 73.0 °F 84% 29.96 in 10.0 mi SSE 3.5 mph - N/A   Clear
10:53 PM 78.1 °F - 73.0 °F 84% 29.96 in 10.0 mi Calm Calm - N/A   Clear
11:53 PM 77.0 °F - 73.9 °F 90% 29.96 in 10.0 mi Calm Calm - N/A   Clear